Regional Weather Roundup
Issued by NWS

Home | Current Version | Previous Version | Text Only | Print | Product List | Glossary On
Versions: 1 2 3 4 5 6 7 8 9 10 11 12 13 14 15 16 17 18 19 20 21 22 23 24 25 26 27 28 29 30 31 32 33 34 35 36 37 38 39 40 41 42 43 44 45 46 47 48 49 50
000
ASUS43 KIND 200059
RWRIN

WEATHER ROUNDUP FOR INDIANA
NATIONAL WEATHER SERVICE INDIANAPOLIS IN
900 PM EDT SUN APR 19 2015

NOTE: "FAIR" INDICATES FEW OR NO CLOUDS BELOW 12,000 FEET WITH NO
SIGNIFICANT WEATHER AND/OR OBSTRUCTIONS TO VISIBILITY.

* - STATION DOES NOT REPORT WEATHER SUCH AS PRECIPITATION OR FOG.

+ - STATION NOT QUALITY CONTROLLED BY THE NATIONAL WEATHER SERVICE.
    USE DATA WITH CAUTION...ESPECIALLY DEWPOINT AND RELATIVE
    HUMIDITY OBSERVATIONS.

INZ001>003-010>013-019-020-200200-
NORTHWEST INDIANA

CITY           SKY/WX    TMP DP  RH WIND       PRES   REMARKS
GARY /AIRPORT/ LGT RAIN  52  48  87 E9        29.39F
RENSSELAER +   RAIN      52  52 100 NE10      29.36F

$$

LMZ046-743>745-200200-
SOUTHERN LAKE MICHIGAN

STATION/POSITION TIME  TEMP WIND        PRES
                       AIR  DIR/SP/G
                 (UTC) (F)  (DEG/KT/KT) (MB)
BURNS HARBOR     0000   49   30/  9/  9  996.3F
MICHIGAN CITY    0000   53   50/  9/ 11   N/A
4NW MICH CITY    0000   47   70/  8/ 10   N/A

$$

INZ004-005-014>016-021>024-200200-
NORTH CENTRAL INDIANA

CITY           SKY/WX    TMP DP  RH WIND       PRES   REMARKS
GOSHEN         LGT RAIN  53  51  93 E17G28    29.38F FOG
PERU/GRISSOM   CLOUDY    54  54 100 CALM      29.35F
SOUTH BEND     RAIN      55  52  89 E17G28    29.39F FOG

$$

INZ006>009-017-018-025>027-200200-
NORTHEAST INDIANA

CITY           SKY/WX    TMP DP  RH WIND       PRES   REMARKS
ANGOLA *+      CLOUDY    52  52 100 E22       29.42F
FORT WAYNE     LGT RAIN  58  57  97 SE14G23   29.39F

$$

INZ028-029-035-036-043>045-051>053-200200-
WEST CENTRAL INDIANA

CITY           SKY/WX    TMP DP  RH WIND       PRES   REMARKS
CRAWFORDSVL +  RAIN      58  57  94 SE7       29.35F
GREENCASTLE +  HVY RAIN  61  57  88 CALM      29.37F
LAFAYETTE      LGT RAIN  54  54 100 E9        29.34F FOG
TERRE HAUTE    CLOUDY    61  59  93 SW14      29.38S

$$

INZ030>032-037>040-046>048-054>057-064-065-200200-
CENTRAL INDIANA

CITY           SKY/WX    TMP DP  RH WIND       PRES   REMARKS
INDIANAPOLIS   LGT RAIN  62  59  90 SE7       29.36F
-EAGLE CREEK   CLOUDY    61  60  97 SE5       29.36F
KOKOMO *+      CLOUDY    55  54  94 SW3       29.36F
MT COMFORT *+  CLOUDY    63 N/A N/A S8        29.39F
SHELBYVILLE    CLOUDY    65  61  87 S9        29.39F

$$

INZ033-034-041-042-049-050-058-059-200200-
EAST CENTRAL INDIANA

CITY           SKY/WX    TMP DP  RH WIND       PRES   REMARKS
MUNCIE         CLOUDY    64  61  90 S10       29.39S

$$

INZ060-061-067>069-081>083-085>088-200200-
SOUTHWEST INDIANA

CITY           SKY/WX    TMP DP  RH WIND       PRES   REMARKS
EVANSVILLE     CLOUDY    63  59  87 W14       29.49R
HUNTINGBURG *+ CLOUDY    63  57  82 SW13G18   29.48R

$$

INZ062-063-066-070>080-084-089>092-200200-
SOUTH CENTRAL AND SOUTHEAST INDIANA

CITY           SKY/WX    TMP DP  RH WIND       PRES   REMARKS
BLOOMINGTON    LGT RAIN  65  62  90 S12       29.38F
MADISON *+     CLOUDY    63  59  88 S9        29.46R

$$



USA.gov is the U.S. government's official web portal to all federal, state and local government web resources and services.